CAPE
0 0 0 0 0 0 0 0 0 0 0 0 0 0 0 0 0 0 0 0 0 0 0 0 0 0 0 0 0 0 0 0 0 0 0 0 0 0 0 0 0 0 0 0 0
0 0 0 0 0 0 0 0 0 0 0 0 0 0 0 0 0 0 0 0 0 0 0 0 0 0 0 0 0 0 0 0 0 0 0 0 0 0 0 0 0 0 0 0 0
0 0 0 0 0 0 0 0 0 0 0 0 0 0 0 0 0 0 0 0 0 0 0 0 0 0 0 0 0 0 0 0 0 0 0 0 0 0 0 0 0 0 0 0 0
0 0 0 0 0 0 0 0 0 0 0 0 0 0 0 0 0 0 0 0 0 0 0 0 0 0 0 0 0 0 0 0 0 0 0 0 0 0 0 0 0 0 0 0 0
0 0 0 0 0 0 0 0 0 0 0 0 0 0 0 0 0 0 0 0 0 0 0 0 0 0 0 0 0 0 0 0 0 0 0 0 0 0 0 0 0 0 0 0 0
0 0 0 0 0 0 0 0 0 0 0 0 0 0 0 0 0 0 0 0 0 0 0 0 0 0 0 0 0 0 0 0 0 0 0 0 0 0 0 0 0 0 0 0 0
0 0 0 0 0 0 0 0 0 0 0 0 0 0 0 0 0 0 0 0 0 0 0 0 0 0 0 0 0 0 0 0 0 0 0 0 0 0 0 0 0 0 0 0 0
0 0 0 0 0 0 0 0 0 0 0 0 0 0 0 0 0 0 0 0 0 0 0 0 0 0 0 0 0 0 0 0 0 0 0 0 0 0 0 0 0 0 0 0 0
0 0 0 0 0 0 0 0 0 0 0 0 0 0 0 0 0 0 0 0 0 0 0 0 0 0 0 0 0 0 0 0 0 0 0 0 0 0 0 0 0 0 0 0 0
0 0 0 0 0 0 0 0 0 0 0 0 0 0 0 0 0 0 0 0 0 0 0 0 0 0 0 0 0 0 0 0 0 0 0 0 0 0 0 0 0 0 0 0 0
0 0 0 0 0 0 0 0 0 0 0 0 0 0 0 0 0 0 0 0 0 0 0 0 0 0 0 0 0 0 0 0 0 0 0 0 0 0 0 0 0 0 0 0 0
0 0 0 0 0 0 0 0 0 0 0 0 0 0 0 0 0 0 0 0 0 0 0 0 0 0 0 0 0 0 0 0 0 0 0 0 0 0 0 0 0 0 0 0 0
0 0 0 0 0 0 0 0 0 0 0 0 0 0 0 0 0 0 0 0 0 0 0 0 0 0 0 0 0 0 0 0 0 0 0 0 0 0 0 0 0 0 0 0 0
0 0 0 0 0 0 0 0 0 0 0 0 0 0 0 0 0 0 0 0 0 0 0 0 0 0 0 0 0 0 0 0 0 0 0 0 0 0 0 0 0 0 0 0 0
0 0 0 0 0 0 0 0 0 0 0 0 0 0 0 0 0 0 0 0 0 0 0 0 0 0 0 0 0 0 0 0 0 0 0 0 0 0 0 0 0 0 0 0 0
0 0 0 0 0 0 0 0 0 0 0 0 0 0 0 0 0 0 0 0 0 0 0 0 0 0 0 0 0 0 0 0 0 0 0 0 0 0 0 0 0 0 0 0 0
0 0 0 0 0 0 0 0 0 0 0 0 0 0 0 0 0 0 0 0 0 0 0 0 0 0 0 0 0 0 0 0 0 0 0 0 0 0 0 0 0 0 0 0 0
0 0 0 0 0 0 0 0 0 0 0 0 0 0 0 0 0 0 0 0 0 0 0 0 0 0 0 0 0 0 0 0 0 0 0 0 0 0 0 0 0 0 0 0 0
0 0 0 0 0 0 0 0 0 0 0 0 0 0 0 0 0 0 0 0 0 0 0 0 0 0 0 0 0 0 0 0 0 0 0 0 0 0 0 0 0 0 0 0 0
0 0 0 0 0 0 0 0 0 0 0 0 0 0 0 0 0 0 0 0 0 0 0 0 0 0 0 0 0 0 0 0 0 0 0 0 0 0 0 0 0 0 0 0 0
0 0 0 0 0 0 0 0 0 0 0 0 0 0 0 0 0 0 0 0 0 0 0 0 0 0 0 0 0 0 0 0 0 0 0 0 0 0 0 0 0 0 0 0 0
0 0 0 0 0 0 0 0 0 0 0 0 0 0 0 0 0 0 0 0 0 0 0 0 0 0 0 0 0 0 0 0 0 0 0 0 0 0 0 0 0 0 0 0 0
0 0 0 0 0 0 0 0 0 0 0 0 0 0 0 0 0 0 0 0 0 0 0 0 0 0 0 0 0 0 0 0 0 0 0 0 0 0 0 0 0 0 0 0 0
0 0 0 0 0 0 0 0 0 0 0 0 0 0 0 0 0 0 0 0 0 0 0 0 0 0 0 0 0 0 0 0 0 0 0 0 0 0 0 0 0 0 0 0 0
0 0 0 0 0 0 0 0 0 0 0 0 0 0 0 0 0 0 0 0 0 0 0 0 0 0 0 0 0 0 0 0 0 0 0 0 0 0 0 0 0 0 0 0 0
0 0 0 0 0 0 0 0 0 0 0 0 0 0 0 0 0 0 0 0 0 0 0 0 0 0 0 0 0 0 0 0 0 0 0 0 0 0 0 0 0 0 0 0 0
0 0 0 0 0 0 0 0 0 0 0 0 0 0 0 0 0 0 0 0 0 0 0 0 0 0 0 0 0 0 0 0 0 0 0 0 0 0 0 0 0 0 0 0 0
CIN
0 0 0 0 0 0 0 0 0 0 0 0 0 0 0 0 0 0 0 0 0 0 0 0 0 0 0 0 0 0 0 0 0 0 0 0 0 0 0 0 0 0 0 0 0
0 0 0 0 0 0 0 0 0 0 0 0 0 0 0 0 0 0 0 0 0 0 0 0 0 0 0 0 0 0 0 0 0 0 0 0 0 0 0 0 0 0 0 0 0
0 0 0 0 0 0 0 0 0 0 0 0 0 0 0 0 0 0 0 0 0 0 0 0 0 0 0 0 0 0 0 0 0 0 0 0 0 0 0 0 0 0 0 0 0
0 0 0 0 0 0 0 0 0 0 0 0 0 0 0 0 0 0 0 0 0 0 0 0 0 0 0 0 0 0 0 0 0 0 0 0 0 0 0 0 0 0 0 0 0
0 0 0 0 0 0 0 0 0 0 0 0 0 0 0 0 0 0 0 0 0 0 0 0 0 0 0 0 0 0 0 0 0 0 0 0 0 0 0 0 0 0 0 0 0
0 0 0 0 0 0 0 0 0 0 0 0 0 0 0 0 0 0 0 0 0 0 0 0 0 0 0 0 0 0 0 0 0 0 0 0 0 0 0 0 0 0 0 0 0
0 0 0 0 0 0 0 0 0 0 0 0 0 0 0 0 0 0 0 0 0 0 0 0 0 0 0 0 0 0 0 0 0 0 0 0 0 0 0 0 0 0 0 0 0
0 0 0 0 0 0 0 0 0 0 0 0 0 0 0 0 0 0 0 0 0 0 0 0 0 0 0 0 0 0 0 0 0 0 0 0 0 0 0 0 0 0 0 0 0
0 0 0 0 0 0 0 0 0 0 0 0 0 0 0 0 0 0 0 0 0 0 0 0 0 0 0 0 0 0 0 0 0 0 0 0 0 0 0 0 0 0 0 0 0
0 0 0 0 0 0 0 0 0 0 0 0 0 0 0 0 0 0 0 0 0 0 0 0 0 0 0 0 0 0 0 0 0 0 0 0 0 0 0 0 0 0 0 0 0
0 0 0 0 0 0 0 0 0 0 0 0 0 0 0 0 0 0 0 0 0 0 0 0 0 0 0 0 0 0 0 0 0 0 0 0 0 0 0 0 0 0 0 0 0
0 0 0 0 0 0 0 0 0 0 0 0 0 0 0 0 0 0 0 0 0 0 0 0 0 0 0 0 0 0 0 0 0 0 0 0 0 0 0 0 0 0 0 0 0
0 0 0 0 0 0 0 0 0 0 0 0 0 0 0 0 0 0 0 0 0 0 0 0 0 0 0 0 0 0 0 0 0 0 0 0 0 0 0 0 0 0 0 0 0
0 0 0 0 0 0 0 0 0 0 0 0 0 0 0 0 0 0 0 0 0 0 0 0 0 0 0 0 0 0 0 0 0 0 0 0 0 0 0 0 0 0 0 0 0
0 0 0 0 0 0 0 0 0 0 0 0 0 0 0 0 0 0 0 0 0 0 0 0 0 0 0 0 0 0 0 0 0 0 0 0 0 0 0 0 0 0 0 0 0
0 0 0 0 0 0 0 0 0 0 0 0 0 0 0 0 0 0 0 0 0 0 0 0 0 0 0 0 0 0 0 0 0 0 0 0 0 0 0 0 0 0 0 0 0
0 0 0 0 0 0 0 0 0 0 0 0 0 0 0 0 0 0 0 0 0 0 0 0 0 0 0 0 0 0 0 0 0 0 0 0 0 0 0 0 0 0 0 0 0
0 0 0 0 0 0 0 0 0 0 0 0 0 0 0 0 0 0 0 0 0 0 0 0 0 0 0 0 0 0 0 0 0 0 0 0 0 0 0 0 0 0 0 0 0
0 0 0 0 0 0 0 0 0 0 0 0 0 0 0 0 0 0 0 0 0 0 0 0 0 0 0 0 0 0 0 0 0 0 0 0 0 0 0 0 0 0 0 0 0
0 0 0 0 0 0 0 0 0 0 0 0 0 0 0 0 0 0 0 0 0 0 0 0 0 0 0 0 0 0 0 0 0 0 0 0 0 0 0 0 0 0 0 0 0
0 0 0 0 0 0 0 0 0 0 0 0 0 0 0 0 0 0 0 0 0 0 0 0 0 0 0 0 0 0 0 0 0 0 0 0 0 0 0 0 0 0 0 0 0
0 0 0 0 0 0 0 0 0 0 0 0 0 0 0 0 0 0 0 0 0 0 0 0 0 0 0 0 0 0 0 0 0 0 0 0 0 0 0 0 0 0 0 0 0
0 0 0 0 0 0 0 0 0 0 0 0 0 0 0 0 0 0 0 0 0 0 0 0 0 0 0 0 0 0 0 0 0 0 0 0 0 0 0 0 0 0 0 0 0
0 0 0 0 0 0 0 0 0 0 0 0 0 0 0 0 0 0 0 0 0 0 0 0 0 0 0 0 0 0 0 0 0 0 0 0 0 0 0 0 0 0 0 0 0
0 0 0 0 0 0 0 0 0 0 0 0 0 0 0 0 0 0 0 0 0 0 0 0 0 0 0 0 0 0 0 0 0 0 -2 0 0 0 0 0 0 0 0 0 0
0 0 0 0 0 0 0 0 0 0 0 0 0 0 0 0 0 0 0 0 0 0 0 0 0 0 0 0 0 0 0 0 0 0 0 0 0 0 0 0 0 0 0 0 0
0 0 0 0 0 0 0 0 0 0 0 0 0 0 0 0 0 0 0 0 0 0 0 0 0 0 0 0 0 0 0 0 0 0 0 0 0 0 0 0 0 0 0 0 0
Wind_Speed
19 18 14 11 10 10 10 10 9 9 9 10 12 14 15 14 13 11 14 17 16 11 15 16 14 17 12 12 11 12 15 15 15 17 22 21 22 20 18 19 16 17 16 16 17
21 21 19 17 16 15 14 12 12 10 10 10 11 12 14 14 14 15 18 17 16 16 19 18 17 16 12 13 14 13 14 14 12 18 22 22 24 24 24 27 24 23 20 21 21
23 22 22 22 21 20 20 18 18 14 13 12 12 14 16 14 18 17 16 16 16 18 19 17 17 13 13 15 17 14 15 15 19 20 19 23 24 25 27 30 32 35 29 28 24
25 24 22 22 23 24 23 23 23 22 21 20 21 22 23 18 17 14 15 14 16 18 19 18 18 15 14 15 17 15 15 17 19 23 25 29 27 26 28 32 29 31 33 32 28
27 26 24 22 22 22 23 24 23 22 21 21 22 24 19 19 16 13 13 16 17 18 18 18 18 16 15 14 18 14 17 19 22 25 30 25 24 26 28 27 28 29 31 33 32
28 27 26 25 23 21 20 21 21 22 21 21 22 21 19 18 15 12 12 16 17 18 17 17 18 16 15 14 15 14 16 21 21 21 21 23 18 21 28 29 29 31 34 32 31
29 29 28 27 25 23 20 19 20 22 18 19 20 18 18 14 15 20 13 16 16 15 16 16 15 18 17 15 17 16 20 20 18 21 19 19 19 20 25 31 31 35 30 24 21
30 30 29 28 27 26 24 22 21 11 15 17 18 17 14 13 18 21 13 5 17 13 7 13 13 16 15 16 19 17 17 22 19 21 18 20 20 21 29 29 31 31 26 25 18
32 32 31 30 29 27 26 26 26 16 14 14 17 18 15 23 15 15 11 13 15 15 15 15 14 15 16 18 18 17 18 19 19 19 19 23 19 22 31 35 35 32 28 25 25
33 33 33 31 30 29 28 28 21 18 15 16 17 17 12 17 16 14 11 14 17 19 18 15 16 14 17 17 21 19 20 18 19 19 22 21 15 22 21 28 31 29 26 24 25
35 35 34 32 30 28 27 21 23 21 17 17 11 10 4 14 23 15 12 16 16 19 19 18 18 19 21 13 14 15 17 18 20 17 21 21 19 18 29 28 28 25 22 23 16
39 38 36 34 31 27 20 21 20 21 27 9 3 3 5 15 18 20 12 13 16 24 19 19 22 17 23 16 12 16 22 22 21 21 24 23 18 15 22 23 24 19 17 23 25
41 40 39 36 30 18 21 21 25 25 25 24 14 9 8 7 8 5 10 11 16 22 19 20 21 23 21 20 21 22 22 22 23 24 24 25 24 23 26 21 21 18 20 29 22
43 42 41 37 20 21 18 24 29 21 25 20 12 12 11 12 16 8 7 11 16 20 20 21 17 21 25 26 22 26 22 21 24 28 27 24 19 20 22 22 23 25 26 27 21
44 43 42 31 23 18 20 28 23 21 28 17 14 14 12 11 17 16 14 13 13 17 17 20 24 28 30 25 23 27 19 21 25 26 27 22 18 16 22 20 23 24 23 22 20
45 43 41 24 20 16 25 23 20 24 26 19 16 18 17 17 20 19 16 17 17 20 20 21 23 24 23 22 18 20 21 26 25 25 24 16 21 20 20 17 18 20 19 19 19
47 45 36 21 20 19 24 19 22 23 22 21 19 19 21 22 24 21 17 16 18 23 27 28 28 21 16 17 17 22 25 32 28 26 24 17 24 19 19 12 12 16 17 19 19
50 46 29 20 18 22 19 18 22 20 21 21 23 28 26 24 23 24 21 22 22 24 29 30 27 13 13 15 18 24 22 25 32 29 27 25 21 21 13 8 10 13 17 18 19
50 35 28 24 15 15 17 21 22 21 23 28 31 30 27 22 24 26 24 26 24 23 26 27 24 18 18 17 20 22 24 23 28 29 31 25 22 22 13 9 11 12 15 21 21
41 33 26 26 13 17 22 25 23 23 33 32 29 26 28 26 29 28 26 22 22 22 21 25 34 24 20 19 21 20 18 29 27 35 34 26 22 17 13 11 14 15 21 29 25
33 30 24 30 17 20 26 25 28 29 27 28 29 30 29 30 29 29 28 26 22 24 25 27 27 28 24 23 26 27 27 25 25 23 32 37 28 15 15 18 20 23 31 36 35
31 31 31 28 22 22 25 27 30 31 28 30 29 30 31 31 32 30 29 25 22 26 30 26 28 33 31 28 29 26 27 22 26 29 28 33 34 23 27 27 29 35 42 42 47
36 27 22 25 29 30 31 31 28 31 31 30 32 30 30 34 38 31 31 26 25 25 25 24 29 37 36 30 23 21 19 16 24 30 35 35 33 25 29 32 36 39 44 50 43
31 32 28 25 23 27 36 35 36 33 35 31 32 34 36 40 36 39 36 28 25 26 23 23 30 33 42 38 35 36 32 35 35 38 42 37 44 38 37 36 39 46 47 41 32
28 29 28 32 29 35 33 34 40 40 32 35 35 36 38 38 40 36 34 32 30 30 27 26 39 35 40 41 39 42 40 36 35 35 38 40 42 42 40 41 39 38 37 28 26
30 30 29 33 33 37 35 35 41 38 38 39 38 41 40 40 37 44 42 37 36 30 32 30 40 42 54 45 43 49 42 40 39 40 38 37 38 37 39 28 31 30 29 26 28
27 26 28 32 34 35 34 35 36 41 38 34 42 46 42 40 43 44 40 38 35 34 34 35 37 39 54 36 40 50 39 34 32 29 29 33 33 27 27 28 28 29 26 28 32
Wind_Direction
330 322 306 289 277 273 268 257 247 235 238 243 256 268 276 274 263 259 320 116 103 148 266 272 2 308 24 14 18 4 326 318 311 309 305 316 313 321 322 316 325 328 331 333 345
332 326 316 306 298 290 279 267 258 248 239 237 239 253 266 274 294 337 67 85 89 75 354 328 326 338 5 360 357 344 331 328 333 324 313 314 312 309 307 301 301 305 315 321 321
332 325 323 317 312 308 301 294 289 264 255 246 249 267 275 29 2 357 67 72 63 43 359 353 2 3 353 356 355 354 328 338 330 325 324 316 312 311 305 297 296 291 297 302 305
333 326 319 316 317 318 316 320 328 332 322 312 316 313 338 24 343 45 63 66 37 12 356 347 345 343 353 349 8 2 359 341 330 323 318 311 313 310 307 300 300 297 295 298 299
331 328 320 313 309 307 310 320 336 348 353 350 351 342 10 359 9 51 55 24 3 348 346 352 343 342 346 12 0 15 359 348 336 326 317 322 316 314 309 311 307 304 301 295 296
331 326 321 316 308 301 296 298 305 323 346 351 349 355 358 352 26 49 37 348 341 334 351 357 352 14 4 9 10 16 3 346 344 340 347 343 335 328 311 313 312 310 302 300 296
330 327 321 315 309 302 289 283 285 305 8 3 358 3 351 3 15 327 358 340 338 345 349 359 15 0 3 4 13 11 351 354 6 355 355 360 343 335 327 315 311 308 310 314 306
327 324 321 315 308 303 294 283 278 44 22 15 11 9 357 21 341 325 2 144 327 356 51 7 12 2 3 1 356 3 10 345 357 358 3 358 338 336 325 323 316 316 313 312 309
325 323 319 314 308 301 294 290 319 8 17 18 3 358 353 312 360 6 38 4 344 344 349 345 357 352 356 348 352 357 354 353 354 1 355 346 339 338 323 314 313 314 314 313 303
324 321 318 312 306 302 296 315 356 360 6 5 354 347 359 347 350 6 18 356 340 328 332 346 343 341 341 343 329 339 344 353 349 355 349 347 337 336 332 325 319 317 315 314 308
323 321 317 310 304 304 323 352 346 346 353 342 344 342 11 347 316 344 352 342 342 339 322 332 327 322 326 335 341 346 345 345 346 355 349 344 340 335 334 331 329 328 321 315 314
324 321 317 311 304 309 357 350 356 348 333 344 245 197 176 338 335 321 348 342 335 323 329 322 315 329 326 332 335 335 332 336 341 345 346 344 338 329 345 346 342 348 350 332 313
324 323 318 312 309 358 350 353 342 342 335 334 351 358 16 26 1 25 8 350 336 329 325 319 315 315 326 326 322 324 327 333 333 338 342 344 344 351 347 353 351 355 355 327 325
325 324 322 314 352 342 349 343 329 355 331 333 344 341 355 350 341 356 346 339 331 329 332 323 327 322 315 315 322 318 327 331 331 332 334 341 336 343 350 350 345 339 336 333 336
321 323 321 336 340 344 343 326 344 349 318 338 339 347 348 338 336 342 340 331 321 327 332 324 319 310 309 315 322 320 331 330 330 327 331 335 334 341 342 346 342 343 345 351 356
318 318 322 350 345 345 332 337 347 330 313 328 330 322 319 318 320 328 329 323 323 319 317 317 321 318 318 322 329 330 330 328 332 332 328 337 336 337 340 349 344 345 353 357 356
315 312 324 345 340 341 335 345 333 322 333 326 328 325 317 312 317 319 313 312 311 313 312 313 314 323 330 322 330 330 328 321 322 325 324 336 331 326 332 344 352 344 348 349 351
314 312 337 336 335 330 338 335 317 326 321 330 324 315 311 315 317 320 314 305 308 309 309 309 314 330 336 332 325 323 325 321 316 318 319 323 320 329 348 344 339 336 338 343 340
323 336 336 337 341 338 331 316 319 322 324 319 316 308 305 308 311 313 309 302 306 311 307 309 310 321 324 326 325 322 314 322 316 315 312 313 313 319 320 321 327 327 326 328 324
339 343 349 334 358 338 320 310 314 318 315 314 307 311 306 305 304 307 304 307 307 311 316 309 303 309 312 321 324 321 326 316 316 312 312 318 318 319 335 307 318 317 316 313 312
349 343 350 334 341 329 313 312 314 316 316 313 308 301 302 301 300 301 301 303 306 308 311 307 302 304 309 308 309 310 310 312 314 309 306 308 310 320 310 308 311 313 311 309 305
346 335 340 339 324 326 318 318 317 314 317 311 309 303 297 299 297 295 296 298 307 307 302 305 303 298 300 306 307 305 305 304 303 306 305 306 297 309 305 306 308 305 303 304 302
336 337 346 345 319 315 318 315 318 315 315 312 305 306 306 299 296 294 295 299 302 304 303 304 299 298 300 307 319 315 313 314 314 309 304 301 301 323 316 307 305 306 305 305 306
340 332 333 336 334 324 318 314 311 315 311 313 307 307 305 299 295 292 292 296 300 302 303 301 294 292 291 295 301 297 296 297 300 298 301 287 298 301 302 301 303 303 304 307 308
343 336 336 325 322 320 318 313 309 306 307 310 303 305 306 298 298 295 295 294 296 297 299 297 291 295 294 296 296 295 295 296 292 292 294 288 295 302 302 303 306 310 311 309 310
341 337 336 325 324 319 318 311 307 307 307 301 299 301 300 297 296 294 293 295 293 295 293 296 293 295 289 295 295 293 295 296 293 292 290 293 292 306 305 310 312 315 315 316 316
349 346 337 330 328 325 322 318 311 310 304 300 301 298 294 295 296 294 292 291 291 293 293 293 295 295 288 299 300 293 300 299 301 301 299 298 303 316 315 313 314 314 319 316 312